DW4604 Weather Reports


time (UTC)temp
F
wind
direction
speed
knots
gust
knots
rain 1hr
in
rain 24hr
in
rain mn
in
humidity
%
barometer
mb
20260904121944 74 0 0.0 0.0 0.00 0.00 0.00 70 1012.1
20260904121444 74 0 0.0 0.0 0.00 0.00 0.00 71 1012.2
20260904120944 74 0 0.0 0.0 0.00 0.00 0.00 72 1012.2
20260904120444 74 0 0.0 0.0 0.00 0.00 0.00 71 1012.3
20260904115944 74 0 0.0 0.0 0.00 0.00 0.00 71 1012.4
20260904115443 74 0 0.0 0.0 0.00 0.00 0.00 69 1012.5
20260904114943 74 0 0.0 0.0 0.00 0.00 0.00 71 1012.7
20260904114443 73 0 0.0 0.0 0.00 0.00 0.00 72 1012.6
20260904113943 73 0 0.0 0.0 0.00 0.00 0.00 71 1012.7
20260904113443 74 0 0.0 0.0 0.00 0.00 0.00 69 1012.9
20260904112946 75 0 0.0 0.0 0.00 0.00 0.00 67 1012.8
20260904112444 76 0 0.0 0.0 0.00 0.00 0.00 65 1012.9
20260904111943 76 0 0.0 0.0 0.00 0.00 0.00 66 1013.1
20260904111444 75 0 0.0 0.0 0.00 0.00 0.00 66 1013.1
20260904110443 74 0 0.0 0.0 0.00 0.00 0.00 68 1013.1
20260904105444 76 0 0.0 0.0 0.00 0.00 0.00 66 1013.3
20260904104944 75 0 0.0 0.0 0.00 0.00 0.00 67 1013.2
20260904104443 75 0 0.0 0.0 0.00 0.00 0.00 68 1013.2
20260904103944 74 0 0.0 0.0 0.00 0.00 0.00 70 1013.4
20260904103444 72 0 0.0 0.0 0.00 0.00 0.00 73 1013.4
20260904102944 72 0 0.0 0.0 0.00 0.00 0.00 72 1013.5
20260904102443 72 0 0.0 0.0 0.00 0.00 0.00 72 1013.5
20260904101944 72 0 0.0 0.0 0.00 0.00 0.00 72 1013.7
20260904101443 71 0 0.0 0.0 0.00 0.00 0.00 72 1013.8
20260904100944 71 0 0.0 0.0 0.00 0.00 0.00 72 1013.8
20260904100444 71 0 0.0 0.0 0.00 0.00 0.00 73 1013.8
20260904095944 71 0 0.0 0.0 0.00 0.00 0.00 72 1013.8
20260904095444 71 0 0.0 0.0 0.00 0.00 0.00 72 1013.9
20260904094944 71 0 0.0 0.0 0.00 0.00 0.00 72 1014.0
20260904094444 72 0 0.0 0.0 0.00 0.00 0.00 71 1014.1
20260904093943 72 0 0.0 0.0 0.00 0.00 0.00 69 1014.2
20260904093444 72 0 0.0 0.0 0.00 0.00 0.00 71 1014.2
20260904092944 72 0 0.0 0.0 0.00 0.00 0.00 74 1014.2
20260904092444 72 0 0.0 0.0 0.00 0.00 0.00 73 1014.3
20260904091944 71 0 0.0 0.0 0.00 0.00 0.00 73 1014.4
20260904091444 71 0 0.0 0.0 0.00 0.00 0.00 73 1014.4
20260904090944 71 0 0.0 0.0 0.00 0.00 0.00 73 1014.6
20260904090444 71 0 0.0 0.0 0.00 0.00 0.00 73 1014.6
20260904085444 70 0 0.0 0.0 0.00 0.00 0.00 74 1014.5
20260904084944 70 0 0.0 0.0 0.00 0.00 0.00 75 1014.5
20260904084444 70 0 0.0 0.0 0.00 0.00 0.00 76 1014.6
20260904083945 70 0 0.0 0.0 0.00 0.00 0.00 75 1014.7
20260904083445 70 0 0.0 0.0 0.00 0.00 0.00 75 1014.7
20260904082944 70 0 0.0 0.0 0.00 0.00 0.00 75 1014.7
20260904081946 69 0 0.0 0.0 0.00 0.00 0.00 76 1015.0
20260904081445 70 0 0.0 0.0 0.00 0.00 0.00 75 1015.0
20260904080944 70 0 0.0 0.0 0.00 0.00 0.00 76 1015.1
20260904080444 70 0 0.0 0.0 0.00 0.00 0.00 75 1014.9
20260904075944 69 0 0.0 0.0 0.00 0.00 0.00 77 1014.9
20260904075444 68 0 0.0 0.0 0.00 0.00 0.00 79 1015.0
20260904074944 67 0 0.0 0.0 0.00 0.00 0.00 80 1015.0
20260904074445 67 0 0.0 0.0 0.00 0.00 0.00 79 1015.1
20260904073946 66 0 0.0 0.0 0.00 0.00 0.00 80 1015.1
20260904073444 67 0 0.0 0.0 0.00 0.00 0.00 80 1015.0
20260904072944 66 0 0.0 0.0 0.00 0.00 0.00 80 1015.1
20260904071944 66 0 0.0 0.0 0.00 0.00 0.00 80 1015.3
20260904071444 66 0 0.0 0.0 0.00 0.00 0.00 81 1015.4
20260904070946 66 0 0.0 0.0 0.00 0.00 0.00 81 1015.3
20260904070445 66 0 0.0 0.0 0.00 0.00 0.00 81 1015.2
20260904065945 65 0 0.0 0.0 0.00 0.00 0.00 81 1015.3
20260904065445 65 0 0.0 0.0 0.00 0.00 0.00 82 1015.5
20260904064944 65 0 0.0 0.0 0.00 0.00 0.00 81 1015.4
20260904064444 65 0 0.0 0.0 0.00 0.00 0.00 81 1015.4
20260904063944 64 0 0.0 0.0 0.00 0.00 0.00 82 1015.2
20260904063445 64 0 0.0 0.0 0.00 0.00 0.00 82 1015.3
20260904062946 64 0 0.0 0.0 0.00 0.00 0.00 82 1015.3
20260904062445 64 0 0.0 0.0 0.00 0.00 0.00 82 1015.3
20260904061945 64 0 0.0 0.0 0.00 0.00 0.00 83 1015.3
20260904061445 64 0 0.0 0.0 0.00 0.00 0.00 84 1015.3
20260904060945 63 0 0.0 0.0 0.00 0.00 0.00 83 1015.1
20260904060446 63 0 0.0 0.0 0.00 0.00 0.00 84 1015.1
20260904055945 63 0 0.0 0.0 0.00 0.00 0.00 84 1015.1
20260904055445 63 0 0.0 0.0 0.00 0.00 0.00 84 1014.9
20260904054944 62 0 0.0 0.0 0.00 0.00 0.00 84 1014.9
20260904054445 63 0 0.0 0.0 0.00 0.00 0.00 83 1014.8
20260904053945 63 0 0.0 0.0 0.00 0.00 0.00 83 1014.7
20260904053445 63 0 0.0 0.0 0.00 0.00 0.00 83 1015.0
20260904052945 62 0 0.0 0.0 0.00 0.00 0.00 83 1015.1
20260904052445 62 0 0.0 0.0 0.00 0.00 0.00 83 1015.0
20260904051944 62 0 0.0 0.0 0.00 0.00 0.00 84 1015.1
20260904050944 62 0 0.0 0.0 0.00 0.00 0.00 84 1015.0
20260904050446 62 0 0.0 0.0 0.00 0.00 0.00 84 1014.9
20260904045945 62 0 0.0 0.0 0.00 0.00 0.00 84 1014.8
20260904045445 62 0 0.0 0.0 0.00 0.00 0.00 85 1015.0
20260904044945 62 0 0.0 0.0 0.00 0.00 0.00 85 1015.0
20260904044446 61 0 0.0 0.0 0.00 0.00 0.00 85 1015.3
20260904043945 61 0 0.0 0.0 0.00 0.00 0.00 85 1015.2
20260904043445 61 0 0.0 0.0 0.00 0.00 0.00 85 1015.1
20260904042945 61 0 0.0 0.0 0.00 0.00 0.00 85 1015.0
20260904041945 60 0 0.0 0.0 0.00 0.00 0.00 86 1014.8
20260904041445 60 0 0.0 0.0 0.00 0.00 0.00 86 1014.9
20260904040945 60 0 0.0 0.0 0.00 0.00 0.00 87 1014.9
20260904035945 60 0 0.0 0.0 0.00 0.00 0.00 85 1015.0
20260904035445 61 0 0.0 0.0 0.00 0.00 0.00 85 1015.0
20260904034947 61 0 0.0 0.0 0.00 0.00 0.00 85 1015.1
20260904034445 61 0 0.0 0.0 0.00 0.00 0.00 85 1015.2
20260904033945 61 0 0.0 0.0 0.00 0.00 0.00 85 1015.2
20260904033445 61 0 0.0 0.0 0.00 0.00 0.00 85 1015.2
20260904032446 61 0 0.0 0.0 0.00 0.00 0.00 85 1015.1
20260904031946 61 0 0.0 0.0 0.00 0.00 0.00 85 1015.0
20260904030947 61 0 0.0 0.0 0.00 0.00 0.00 84 1015.0
20260904030445 61 0 0.0 0.0 0.00 0.00 0.00 84 1015.0
20260904025946 61 0 0.0 0.0 0.00 0.00 0.00 83 1015.0
20260904023945 62 0 0.0 0.0 0.00 0.00 0.00 82 1015.2
20260904022946 62 0 0.0 0.0 0.00 0.00 0.00 81 1015.1
20260904021445 62 0 0.0 0.0 0.00 0.00 0.00 81 1015.1
20260904020447 62 0 0.0 0.0 0.00 0.00 0.00 82 1015.0
20260904015946 62 0 0.0 0.0 0.00 0.00 0.00 82 1015.1
20260904015445 62 0 0.0 0.0 0.00 0.00 0.00 82 1015.1
20260904014947 62 0 0.0 0.0 0.00 0.00 0.00 82 1015.2
20260904014446 62 0 0.0 0.0 0.00 0.00 0.00 82 1015.1
20260904013946 61 0 0.0 0.0 0.00 0.00 0.00 83 1015.1
20260904013446 61 0 0.0 0.0 0.00 0.00 0.00 84 1015.1
20260904012945 61 0 0.0 0.0 0.00 0.00 0.00 84 1015.1
20260904010945 60 0 0.0 0.0 0.00 0.00 0.00 86 1015.2
20260904010445 60 0 0.0 0.0 0.00 0.00 0.00 87 1015.2
20260904005945 60 0 0.0 0.0 0.00 0.00 0.00 87 1015.2
20260904005445 60 0 0.0 0.0 0.00 0.00 0.00 87 1015.2
20260904004945 60 0 0.0 0.0 0.00 0.00 0.00 87 1015.2
20260904003945 60 0 0.0 0.0 0.00 0.00 0.00 87 1015.3
20260904003445 60 0 0.0 0.0 0.00 0.00 0.00 87 1015.3
20260904002945 60 0 0.0 0.0 0.00 0.00 0.00 87 1015.4
20260904002445 60 0 0.0 0.0 0.00 0.00 0.00 88 1015.3
20260904001947 60 0 0.0 0.0 0.00 0.00 0.00 88 1015.3
20260904001446 60 0 0.0 0.0 0.00 0.00 0.00 88 1015.3
20260904000946 59 0 0.0 0.0 0.00 0.00 0.00 88 1015.4
20260903235946 59 0 0.0 0.0 0.00 0.00 0.00 88 1015.5
20260903235446 59 0 0.0 0.0 0.00 0.00 0.00 88 1015.4
20260903234946 59 0 0.0 0.0 0.00 0.00 0.00 88 1015.5
20260903233946 59 0 0.0 0.0 0.00 0.00 0.00 88 1015.5
20260903233446 59 0 0.0 0.0 0.00 0.00 0.00 88 1015.5
20260903232447 59 0 0.0 0.0 0.00 0.00 0.00 88 1015.6
20260903231946 59 0 0.0 0.0 0.00 0.00 0.00 88 1015.7
20260903231446 59 0 0.0 0.0 0.00 0.00 0.00 88 1015.8
20260903230445 59 0 0.0 0.0 0.00 0.00 0.00 89 1015.8
20260903225446 59 0 0.0 0.0 0.00 0.00 0.00 90 1015.9
20260903224946 59 0 0.0 0.0 0.00 0.00 0.00 89 1016.0
20260903224446 59 0 0.0 0.0 0.00 0.00 0.00 90 1016.0
20260903223946 59 0 0.0 0.0 0.00 0.00 0.00 90 1015.9
20260903221447 58 0 0.0 0.0 0.00 0.00 0.00 91 1015.9
20260903220946 58 0 0.0 0.0 0.00 0.00 0.00 91 1015.8
20260903215949 58 0 0.0 0.0 0.00 0.00 0.00 91 1015.9
20260903215447 58 0 0.0 0.0 0.00 0.00 0.00 91 1016.0
20260903214947 57 0 0.0 0.0 0.00 0.00 0.00 91 1016.0
20260903214448 57 0 0.0 0.0 0.00 0.00 0.00 91 1016.0
20260903213946 57 0 0.0 0.0 0.00 0.00 0.00 91 1016.0
20260903212946 56 0 0.0 0.0 0.00 0.00 0.00 91 1016.0
20260903212447 56 0 0.0 0.0 0.00 0.00 0.00 91 1016.0
20260903211947 56 0 0.0 0.0 0.00 0.00 0.00 91 1016.1
20260903211447 56 0 0.0 0.0 0.00 0.00 0.00 91 1016.1
20260903210946 56 0 0.0 0.0 0.00 0.00 0.00 90 1016.0
20260903210446 56 0 0.0 0.0 0.00 0.00 0.00 90 1016.0
20260903205446 56 0 0.0 0.0 0.00 0.00 0.00 90 1016.0
20260903204946 56 0 0.0 0.0 0.00 0.00 0.00 90 1015.9
20260903204447 56 0 0.0 0.0 0.00 0.00 0.00 90 1016.0
20260903203947 56 0 0.0 0.0 0.00 0.00 0.00 90 1016.0
20260903203447 56 0 0.0 0.0 0.00 0.00 0.00 90 1016.0
20260903202947 56 0 0.0 0.0 0.00 0.00 0.00 90 1015.8
20260903202447 56 0 0.0 0.0 0.00 0.00 0.00 89 1016.0
20260903201447 57 0 0.0 0.0 0.00 0.00 0.00 89 1016.2
20260903200947 57 0 0.0 0.0 0.00 0.00 0.00 89 1016.1
20260903200446 57 0 0.0 0.0 0.00 0.00 0.00 89 1016.1
20260903195446 57 0 0.0 0.0 0.00 0.00 0.00 89 1016.0
20260903193947 58 0 0.0 0.0 0.00 0.00 0.00 88 1016.1
20260903191947 58 0 0.0 0.0 0.00 0.00 0.00 87 1016.2
20260903191447 58 0 0.0 0.0 0.00 0.00 0.00 87 1016.3
20260903190947 58 0 0.0 0.0 0.00 0.00 0.00 87 1016.2
20260903190447 58 0 0.0 0.0 0.00 0.00 0.00 87 1016.3
20260903185947 58 0 0.0 0.0 0.00 0.00 0.00 87 1016.3
20260903185447 58 0 0.0 0.0 0.00 0.00 0.00 86 1016.4
20260903184947 58 0 0.0 0.0 0.00 0.00 0.00 86 1016.4
20260903183947 59 0 0.0 0.0 0.00 0.00 0.00 85 1016.5
20260903183447 60 0 0.0 0.0 0.00 0.00 0.00 84 1016.5
20260903182449 61 0 0.0 0.0 0.00 0.00 0.00 83 1016.5
20260903181947 61 0 0.0 0.0 0.00 0.00 0.00 83 1016.4
20260903181447 61 0 0.0 0.0 0.00 0.00 0.00 82 1016.4
20260903180949 61 0 0.0 0.0 0.00 0.00 0.00 82 1016.4
20260903180447 61 0 0.0 0.0 0.00 0.00 0.00 82 1016.4
20260903175947 61 0 0.0 0.0 0.00 0.00 0.00 81 1016.4
20260903175449 61 0 0.0 0.0 0.00 0.00 0.00 81 1016.4
20260903174947 62 0 0.0 0.0 0.00 0.00 0.00 80 1016.4
20260903174447 62 0 0.0 0.0 0.00 0.00 0.00 80 1016.4
20260903173447 62 0 0.0 0.0 0.00 0.00 0.00 79 1016.4
20260903172947 63 0 0.0 0.0 0.00 0.00 0.00 79 1016.2
20260903172447 64 0 0.0 0.0 0.00 0.00 0.00 78 1016.2
20260903171947 64 0 0.0 0.0 0.00 0.00 0.00 77 1016.2
20260903171447 64 0 0.0 0.0 0.00 0.00 0.00 78 1016.3
20260903170947 65 0 0.0 0.0 0.00 0.00 0.00 78 1016.3
20260903164449 66 0 0.0 0.0 0.00 0.00 0.00 74 1016.2
20260903163447 68 0 0.0 0.0 0.00 0.00 0.00 72 1016.1
20260903162947 68 0 0.0 0.0 0.00 0.00 0.00 69 1016.1
20260903162448 68 0 0.0 0.0 0.00 0.00 0.00 69 1016.2
20260903161948 69 0 0.0 0.0 0.00 0.00 0.00 69 1016.1
20260903161448 68 0 0.0 0.0 0.00 0.00 0.00 70 1016.1
20260903160948 69 0 0.0 0.0 0.00 0.00 0.00 71 1016.1
20260903160448 69 0 0.0 0.0 0.00 0.00 0.00 71 1016.1
20260903155948 69 0 0.0 0.0 0.00 0.00 0.00 71 1016.0
20260903154948 69 0 0.0 0.0 0.00 0.00 0.00 70 1016.2
20260903154448 70 0 0.0 0.0 0.00 0.00 0.00 69 1016.2
20260903153949 70 0 0.0 0.0 0.00 0.00 0.00 68 1016.2
20260903153448 70 0 0.0 0.0 0.00 0.00 0.00 67 1016.2
20260903152948 71 0 0.0 0.0 0.00 0.00 0.00 67 1016.2
20260903152448 71 0 0.0 0.0 0.00 0.00 0.00 67 1016.3
20260903151948 71 0 0.0 0.0 0.00 0.00 0.00 67 1016.3
20260903151447 71 0 0.0 0.0 0.00 0.00 0.00 67 1016.3
20260903150448 71 0 0.0 0.0 0.00 0.00 0.00 68 1016.3
20260903145948 71 0 0.0 0.0 0.00 0.00 0.00 65 1016.3
20260903145448 72 0 0.0 0.0 0.00 0.00 0.00 66 1016.3
20260903144948 72 0 0.0 0.0 0.00 0.00 0.00 65 1016.4
20260903144448 72 0 0.0 0.0 0.00 0.00 0.00 67 1016.5
20260903143447 72 0 0.0 0.0 0.00 0.00 0.00 65 1016.4
20260903142948 72 0 0.0 0.0 0.00 0.00 0.00 63 1016.3
20260903142448 72 0 0.0 0.0 0.00 0.00 0.00 62 1016.4
20260903141948 72 0 0.0 0.0 0.00 0.00 0.00 65 1016.5
20260903140948 72 0 0.0 0.0 0.00 0.00 0.00 66 1016.5
20260903140448 72 0 0.0 0.0 0.00 0.00 0.00 65 1016.6
20260903135948 72 0 0.0 0.0 0.00 0.00 0.00 65 1016.6
20260903135448 72 0 0.0 0.0 0.00 0.00 0.00 65 1016.5
20260903134948 73 0 0.0 0.0 0.00 0.00 0.00 65 1016.5
20260903134448 73 0 0.0 0.0 0.00 0.00 0.00 65 1016.6
20260903133448 72 0 0.0 0.0 0.00 0.00 0.00 64 1016.5
20260903132448 71 0 0.0 0.0 0.00 0.00 0.00 69 1016.6
20260903131948 71 0 0.0 0.0 0.00 0.00 0.00 67 1016.6
20260903130948 72 0 0.0 0.0 0.00 0.00 0.00 66 1016.7
20260903130448 72 0 0.0 0.0 0.00 0.00 0.00 69 1016.7
20260903125948 72 0 0.0 0.0 0.00 0.00 0.00 68 1016.7
20260903124948 72 0 0.0 0.0 0.00 0.00 0.00 68 1016.8
20260903123948 72 0 0.0 0.0 0.00 0.00 0.00 68 1016.9
20260903123449 72 0 0.0 0.0 0.00 0.00 0.00 67 1017.0
20260903122948 72 0 0.0 0.0 0.00 0.00 0.00 66 1017.0
20260903122449 73 0 0.0 0.0 0.00 0.00 0.00 67 1017.0